Date String (YYYY-MM-DD hh:mm:ss) UTC,Instrument flags,absolute air pressure of the measurement (hPa),sample flow rate (lpm),inlet stack bypass flow (lpm),air temperature of the measurement (°C),ambient temperature measured by the external sensor (°C),aerosol sample conditioner tube jacket temperature (°C),OPC LED temperature (°C),internal box temperature (°C),relative humidity of the measurement (%),span deviation,mass concentration of particles derived from Lorenz-Mie calculation of OPC scattering (μg/m³),mass concentration of particles derived from Lorenz-Mie calculation of OPC scattering (μg/m³),mass concentration of particles derived from Lorenz-Mie calculation of OPC scattering (μg/m³)
DateTimeUTC,F1_M11,P_M11,Q1_M11,Q2_M11,T1_M11,T2_M11,T3_M11,T4_M11,T5_M11,U1_M11,ZSPAN_M11,X0_M11,X2_M11,X1_M11
2023-12-04 21:00:00,SystemResetWarning,0828.1,4.99,000.00,022.1,021.4,000.0,030.2,023.4,14.9,0000.0,0000.67,0000.33,0000.21
2023-12-04 21:01:00,SystemResetWarning,0828.2,5.01,000.00,022.1,021.4,000.0,030.2,023.4,14.8,0000.0,0000.60,0000.32,0000.21
2023-12-04 21:02:00,SystemResetWarning,0828.3,5.01,000.00,022.1,021.4,000.0,030.2,023.4,15.0,0000.0,0000.58,0000.31,0000.21
2023-12-04 21:03:00,SystemResetWarning,0828.4,4.99,000.00,022.1,021.5,000.0,030.2,023.5,15.0,0000.0,0000.61,0000.32,0000.21
2023-12-04 21:04:00,SystemResetWarning,0828.3,4.99,000.00,022.1,021.5,000.0,030.3,023.5,14.6,0000.0,0000.57,0000.29,0000.21
2023-12-04 21:05:00,SystemResetWarning,0828.3,4.99,000.00,022.1,021.5,000.0,030.3,023.5,14.7,0000.0,0000.60,0000.29,0000.22
2023-12-04 21:06:00,SystemResetWarning,0828.3,5.00,000.00,022.2,021.5,000.0,030.3,023.6,14.8,0000.0,0000.71,0000.30,0000.21
2023-12-04 21:07:00,SystemResetWarning,0828.4,5.00,000.00,022.2,021.6,000.0,030.3,023.6,14.5,0000.0,0000.75,0000.31,0000.22
2023-12-04 21:08:00,SystemResetWarning,0828.3,5.00,000.00,022.2,021.6,000.0,030.3,023.6,14.7,0000.0,0000.79,0000.33,0000.22
2023-12-04 21:09:00,SystemResetWarning,0828.4,5.00,000.00,022.2,021.6,000.0,030.3,023.6,14.5,0000.0,0000.68,0000.31,0000.22
2023-12-04 21:10:00,SystemResetWarning,0828.4,5.00,000.00,022.2,021.6,000.0,030.4,023.6,14.7,0000.0,0000.67,0000.31,0000.22
2023-12-04 21:11:00,SystemResetWarning,0828.4,5.00,000.00,022.3,021.7,000.0,030.4,023.6,14.8,0000.0,0000.69,0000.31,0000.21
2023-12-04 21:12:00,SystemResetWarning,0828.4,5.00,000.00,022.3,021.7,000.0,030.4,023.7,14.8,0000.0,0000.69,0000.31,0000.21
2023-12-04 21:13:00,SystemResetWarning,0828.4,5.00,000.00,022.3,021.7,000.0,030.4,023.7,14.8,0000.0,0000.68,0000.31,0000.22
2023-12-04 21:14:00,SystemResetWarning,0828.4,5.00,000.00,022.3,021.7,000.0,030.4,023.7,14.8,0000.0,0000.64,0000.29,0000.21
2023-12-04 21:15:00,SystemResetWarning,0828.4,5.00,000.00,022.3,021.7,000.0,030.4,023.8,15.0,0000.0,0000.62,0000.28,0000.21
2023-12-04 21:16:00,SystemResetWarning,0828.4,5.00,000.00,022.4,021.8,000.0,030.5,023.8,14.7,0000.0,0000.66,0000.29,0000.21
2023-12-04 21:17:00,SystemResetWarning,0828.4,5.00,000.00,022.4,021.8,000.0,030.5,023.8,14.5,0000.0,0000.90,0000.31,0000.20
2023-12-04 21:18:00,SystemResetWarning,0828.3,5.00,000.00,022.4,021.8,000.0,030.5,023.8,14.5,0000.0,0000.91,0000.30,0000.20
2023-12-04 21:19:00,SystemResetWarning,0828.4,5.00,000.00,022.4,021.8,000.0,030.5,023.8,13.7,0000.0,0000.84,0000.29,0000.20
2023-12-04 21:20:00,SystemResetWarning,0828.5,5.00,000.00,022.4,021.8,000.0,030.5,023.8,13.6,0000.0,0000.86,0000.30,0000.20
2023-12-04 21:21:00,SystemResetWarning,0828.5,5.00,000.00,022.4,021.8,000.0,030.6,023.8,14.2,0000.0,0000.88,0000.31,0000.20
2023-12-04 21:22:00,SystemResetWarning,0828.5,5.00,000.00,022.5,021.8,000.0,030.6,023.8,14.3,0000.0,0000.92,0000.33,0000.21
2023-12-04 21:23:00,SystemResetWarning,0828.5,5.00,000.00,022.5,021.8,000.0,030.6,023.8,14.1,0000.0,0001.05,0000.38,0000.22
2023-12-04 21:24:00,SystemResetWarning,0828.3,5.00,000.00,022.5,021.8,000.0,030.6,023.8,14.2,0000.0,0001.09,0000.40,0000.22
2023-12-04 21:25:00,SystemResetWarning,0828.4,5.00,000.00,022.5,021.8,000.0,030.6,023.8,14.0,0000.0,0001.21,0000.40,0000.23
2023-12-04 21:26:00,SystemResetWarning,0828.4,5.00,000.00,022.5,021.8,000.0,030.6,023.8,14.2,0000.0,0001.33,0000.42,0000.23
2023-12-04 21:27:00,SystemResetWarning,0828.5,5.00,000.00,022.5,021.8,000.0,030.6,023.8,13.8,0000.0,0001.31,0000.41,0000.23
2023-12-04 21:28:00,SystemResetWarning,0828.5,5.00,000.00,022.5,021.8,000.0,030.7,023.8,13.4,0000.0,0001.05,0000.41,0000.24
2023-12-04 21:29:00,SystemResetWarning,0828.6,5.00,000.00,022.5,021.8,000.0,030.7,023.8,13.5,0000.0,0000.93,0000.41,0000.24
2023-12-04 21:30:00,SystemResetWarning,0828.6,5.00,000.00,022.5,021.8,000.0,030.7,023.8,13.9,0000.0,0000.92,0000.41,0000.24
2023-12-04 21:31:00,SystemResetWarning,0828.6,5.00,000.00,022.5,021.8,000.0,030.7,023.9,14.4,0000.0,0000.95,0000.41,0000.24
2023-12-04 21:32:00,SystemResetWarning,0828.6,5.00,000.00,022.5,021.8,000.0,030.7,023.9,13.7,0000.0,0001.08,0000.41,0000.24
2023-12-04 21:33:00,SystemResetWarning,0828.6,4.99,000.00,022.6,021.8,000.0,030.7,023.9,13.9,0000.0,0001.09,0000.40,0000.24
2023-12-04 21:34:00,SystemResetWarning,0828.6,5.00,000.00,022.6,021.8,000.0,030.7,023.9,14.6,0000.0,0000.97,0000.35,0000.23
2023-12-04 21:35:00,SystemResetWarning,0828.6,5.01,000.00,022.6,021.8,000.0,030.7,023.9,14.7,0000.0,0000.92,0000.33,0000.22
2023-12-04 21:36:00,SystemResetWarning,0828.7,5.00,000.00,022.6,021.9,000.0,030.7,023.9,14.6,0000.0,0000.92,0000.36,0000.22
2023-12-04 21:37:00,SystemResetWarning,0828.7,5.01,000.00,022.6,021.9,000.0,030.8,023.9,14.8,0000.0,0000.80,0000.37,0000.22
2023-12-04 21:38:00,SystemResetWarning,0828.8,5.00,000.00,022.6,021.9,000.0,030.8,023.9,14.7,0000.0,0000.95,0000.39,0000.22
2023-12-04 21:39:00,SystemResetWarning,0828.8,4.98,000.00,022.6,021.9,000.0,030.8,023.9,14.6,0000.0,0000.98,0000.39,0000.21
2023-12-04 21:40:00,SystemResetWarning,0828.8,5.00,000.00,022.6,021.9,000.0,030.8,023.9,14.6,0000.0,0001.00,0000.40,0000.21
2023-12-04 21:41:00,SystemResetWarning,0828.8,5.00,000.00,022.6,021.9,000.0,030.8,023.9,14.6,0000.0,0001.03,0000.39,0000.21
2023-12-04 21:42:00,SystemResetWarning,0828.9,5.01,000.00,022.6,021.9,000.0,030.8,023.9,14.7,0000.0,0001.06,0000.39,0000.21
2023-12-04 21:43:00,SystemResetWarning,0828.9,5.00,000.00,022.6,021.9,000.0,030.8,023.9,14.7,0000.0,0000.99,0000.39,0000.21
2023-12-04 21:44:00,SystemResetWarning,0829.0,5.00,000.00,022.6,021.9,000.0,030.8,023.9,14.9,0000.0,0000.88,0000.40,0000.20
2023-12-04 21:45:00,SystemResetWarning,0829.1,5.00,000.00,022.6,021.9,000.0,030.8,023.9,14.8,0000.0,0000.95,0000.43,0000.21
2023-12-04 21:46:00,SystemResetWarning,0829.1,5.00,000.00,022.6,021.9,000.0,030.8,024.0,14.9,0000.0,0001.14,0000.48,0000.21
2023-12-04 21:47:00,SystemResetWarning,0829.2,4.99,000.00,022.6,021.9,000.0,030.9,023.9,14.7,0000.0,0001.17,0000.47,0000.21
2023-12-04 21:48:00,SystemResetWarning,0829.3,5.00,000.00,022.6,021.9,000.0,030.9,023.9,14.8,0000.0,0001.18,0000.45,0000.21
2023-12-04 21:49:00,SystemResetWarning,0829.3,5.01,000.00,022.7,021.9,000.0,030.9,023.9,14.8,0000.0,0001.20,0000.43,0000.21
2023-12-04 21:50:00,SystemResetWarning,0829.4,5.01,000.00,022.6,021.9,000.0,030.9,023.9,14.8,0000.0,0001.04,0000.41,0000.22
2023-12-04 21:51:00,SystemResetWarning,0829.3,5.00,000.00,022.7,021.9,000.0,030.9,023.9,14.9,0000.0,0001.02,0000.42,0000.23
2023-12-04 21:52:00,SystemResetWarning,0829.4,4.99,000.00,022.7,021.8,000.0,030.9,023.9,15.0,0000.0,0001.03,0000.42,0000.23
2023-12-04 21:53:00,SystemResetWarning,0829.4,4.99,000.00,022.7,021.9,000.0,030.9,023.9,14.9,0000.0,0001.96,0000.42,0000.24
2023-12-04 21:54:00,SystemResetWarning,0829.4,4.99,000.00,022.7,021.9,000.0,030.9,023.9,14.9,0000.0,0002.30,0000.43,0000.24
2023-12-04 21:55:00,SystemResetWarning,0829.3,5.01,000.00,022.7,021.9,000.0,030.9,023.9,14.9,0000.0,0002.34,0000.45,0000.24
2023-12-04 21:56:00,SystemResetWarning,0829.4,5.00,000.00,022.7,021.9,000.0,030.9,023.9,15.0,0000.0,0002.36,0000.44,0000.24
2023-12-04 21:57:00,SystemResetWarning,0829.3,5.01,000.00,022.7,021.8,000.0,030.9,024.0,14.9,0000.0,0002.21,0000.41,0000.25
2023-12-04 21:58:00,SystemResetWarning,0829.4,4.99,000.00,022.7,021.8,000.0,030.9,023.9,14.5,0000.0,0002.16,0000.42,0000.26
2023-12-04 21:59:00,SystemResetWarning,0829.5,5.00,000.00,022.7,021.9,000.0,030.9,024.0,14.9,0000.0,0002.10,0000.43,0000.26
